Location: ????????
(56.0167°N, 38.0333°E)
Time: 11:32:34
(UTC+00:00)

ATLAS CENTAUR R/B - Pass Details

Date: 19 May 2025
Orbit: 376 x 501 km, 64.6° (Epoch: 14 June)

Event Time Altitude Azimuth Distance (km) Brightness Sun altitude
Rises 22:32:27 0° 294° (WNW) 2,600 4.9 -12.7°
Reaches altitude 10° 22:34:57 10° 310° (NW) 1,728 4.2 -12.6°
Maximum altitude 22:38:05 23° 4° (N) 1,131 3.9 -12.4°
Drops below altitude 10° 22:41:15 10° 58° (ENE) 1,741 4.7 -12.3°
Sets 22:43:46 0° 73° (ENE) 2,624 5.3 -12.2°
